This is the latest recevied weather packets stored in our database for station/object 9M2SAR-10. If no packets are shown the sender has not sent any weather packets the latest 10 day(s).
| Time | Temp. | Humidity | Pressure | Rain* | Wind** | Luminosity | Snow |
|---|---|---|---|---|---|---|---|
| 1777548670 | 28.89° C | 100% | 1008 hPa | - | - | - | - |
| 1777547770 | 28.89° C | 100% | 1007.9 hPa | - | - | - | - |
| 1777546870 | 30° C | 100% | 1007.8 hPa | - | - | - | - |
| 1777545970 | 30° C | 100% | 1007.5 hPa | - | - | - | - |
| 1777545070 | 30.56° C | 100% | 1007.2 hPa | - | - | - | - |
| 1777544170 | 31.11° C | 100% | 1006.9 hPa | - | - | - | - |
| 1777543270 | 30° C | 100% | 1007 hPa | - | - | - | - |
| 1777542369 | 31.11° C | 100% | 1007.1 hPa | - | - | - | - |
| 1777541469 | 31.11° C | 100% | 1006.9 hPa | - | - | - | - |
| 1777540569 | 31.67° C | 100% | 1007.2 hPa | - | - | - | - |
| 1777539669 | 32.22° C | 100% | 1007.2 hPa | - | - | - | - |
| 1777538769 | 33.33° C | 100% | 1006.9 hPa | - | - | - | - |
| 1777537869 | 33.89° C | 100% | 1006.9 hPa | - | - | - | - |
| 1777536969 | 34.44° C | 100% | 1007.5 hPa | - | - | - | - |
| 1777536069 | 36.11° C | 100% | 1006.7 hPa | - | - | - | - |
| 1777535169 | 34.44° C | 100% | 1006.9 hPa | - | - | - | - |
| 1777534269 | 35° C | 100% | 1007.4 hPa | - | - | - | - |
| 1777533369 | 36.11° C | 100% | 1007.5 hPa | - | - | - | - |
| 1777532469 | 35.56° C | 100% | 1008 hPa | - | - | - | - |
| 1777531568 | 36.11° C | 100% | 1008.2 hPa | - | - | - | - |
| 1777530668 | 35.56° C | 100% | 1008.4 hPa | - | - | - | - |
| 1777529768 | 35.56° C | 100% | 1008.8 hPa | - | - | - | - |
| 1777528868 | 36.11° C | 100% | 1009.1 hPa | - | - | - | - |
| 1777527968 | 36.11° C | 100% | 1009.3 hPa | - | - | - | - |
| 1777527068 | 35.56° C | 100% | 1009.5 hPa | - | - | - | - |
* Rain since midnight (hover to see other rain measurements)
** Current wind speed in m/s (hover to see current wind gust speed)